Miscellaneous Local Product
Issued by NWS North Platte, NE

Home | Current Version | Previous Version | Text Only | Print | Product List | Glossary On
Versions: 1 2 3 4 5 6 7 8 9 10 11 12 13 14 15 16 17 18 19 20 21 22 23 24 25 26 27 28 29 30 31 32 33 34 35 36 37 38 39 40 41 42 43 44 45 46 47 48 49 50
000
AXUS43 KLBF 010710
MISLBF


WESTERN AND NORTH CENTRAL NEBRASKA HOURLY WEATHER ROUNDUP
NATIONAL WEATHER SERVICE NORTH PLATTE NE
100 AM CST SUN MAR 01 2015

***STATIONS NOT REPORTING VARIABLES SUCH AS SKY/WEATHER OR
PRESSURE ARE PROVIDED BY THE NEBRASKA DEPARTMENT OF
ROADS...RAWS...AND APRS NETWORKS...AND ARE NOT UNDER
NATIONAL WEATHER SERVICE QUALITY CONTROL***

...OBSERVATIONS IN AND NEAR THE EASTERN PANHANDLE OF NEBRASKA...

CITY           SKY/WX    TMP DP  RH WIND       PRES   REMARKS
PINE RIDGE     CLOUDY    19   7  59 NE6       30.18R WCI  11
CHADRON        CLOUDY    19   9  65 NE10      30.18S WCI   7
ALLIANCE       CLOUDY    18  11  74 E8        30.11R WCI   8
SIDNEY         CLOUDY    20  14  77 S5        30.09R WCI  13
WHITECLAY        N/A     18   6  59 E5          N/A  WCI  11
LISCO            N/A     24  14  65 CALM        N/A
BIG SPRINGS      N/A     21  15  76 S9          N/A  WCI  11
LEWELLEN         N/A     17   9  72 CALM        N/A
$$

...OBSERVATIONS IN NORTH CENTRAL NEBRASKA...

CITY           SKY/WX    TMP DP  RH WIND       PRES   REMARKS
VALENTINE      CLOUDY    19   5  54 NE8       30.22R WCI   9
THEDFORD       CLEAR     17  11  78 CALM      30.17F
AINSWORTH      PTCLDY    16   5  62 N5        30.22R WCI   9
O`NEILL        CLEAR     16  11  78 CALM      30.24R
ORD            CLEAR     12   7  80 CALM      30.23S
BROKEN BOW     PTCLDY    16  11  80 CALM      30.20F
BROWNLEE         N/A     15   4  62 N6          N/A  WCI   6
SPRINGVIEW       N/A     17   6  61 CALM        N/A
BREWSTER         N/A     18  14  82 SW8         N/A  WCI   8
ROSE             N/A     21  15  79 W5          N/A  WCI  14
NEWPORT          N/A     23  13  65 NW3         N/A
SARGENT          N/A     17  13  82 CALM        N/A
COMSTOCK         N/A     21  17  84 SW9         N/A  WCI  10
CHAMBERS         N/A     13   4  65 S3          N/A
EWING            N/A     15  11  83 CALM        N/A
$$

...OBSERVATIONS IN SOUTHWEST NEBRASKA AND FAR NORTHEAST COLORADO...

CITY           SKY/WX    TMP DP  RH WIND       PRES   REMARKS
WRAY           FAIR      18  15  86 CALM      30.13R
IMPERIAL         N/A     16  11  80 SE6       30.14S WCI   7
OGALLALA       CLOUDY    20  13  75 CALM      30.15R
NORTH PLATTE   MOCLDY    16  10  77 S5        30.18F WCI   9
MCCOOK         MOCLDY    20  14  77 S7        30.20F WCI  11
LEXINGTON      PTCLDY    14  11  89 S6        30.21F WCI   5
PAXTON           N/A     20  14  78 S8          N/A  WCI  10
BRADY            N/A     13   9  84 CALM        N/A
GOTHENBURG       N/A     14   9  81 N3          N/A
CALLAWAY         N/A     14  11  87 SE3         N/A
$$

...NORTH PLATTE AREA...

CITY           SKY/WX    TMP DP  RH WIND       PRES   REMARKS
AIRPORT        MOCLDY    16  10  77 S5        30.18F WCI   9
DOWNTOWN         N/A     17  11  78 CALM        N/A
$$

...SOME WEATHER OBSERVATIONS FROM AROUND THE REGION...

CITY           SKY/WX    TMP DP  RH WIND       PRES   REMARKS
DENVER         MOCLDY    11   7  84 CALM      29.99F
LARAMIE        LGT SNOW  15  11  83 SE9       29.89R FOG     WCI   3
CHEYENNE       LGT SNOW  16  12  84 CALM      29.96F FOG
SCOTTSBLUFF    CLOUDY    23  13  65 NE8       30.10R WCI  14
RAPID CITY     CLOUDY    12   8  84 CALM      30.19R
PIERRE         PTCLDY    11   4  73 W6        30.25S WCI   1
WINNER         FAIR      16   1  51 CALM      30.24S
SIOUX FALLS    CLEAR     16  10  77 W3        30.24R
OMAHA          CLOUDY    23  15  71 SW10      30.36S WCI  12
GRAND ISLAND   CLEAR     15  12  88 SW9       30.28R WCI   3
KANSAS CITY    LGT SNOW  22  20  92 CALM      30.35F FOG
WICHITA        CLOUDY    22  20  92 S5        30.33S FOG     WCI  16
HAYS           PTCLDY    18   7  62 CALM      30.26F
LIBERAL        CLOUDY    21  18  86 SE7       30.19R WCI  13
GOODLAND       CLOUDY    18  16  92 S8        30.12F WCI   8
$$



USA.gov is the U.S. government's official web portal to all federal, state and local government web resources and services.